BV3BA-13 Weather Reports


time (UTC)temp
C
wind
direction
speed
KPH
gust
KPH
rain 1hr
cm
rain 24hr
cm
rain mn
cm
humidity
%
barometer
mb
20260508132704 21 40 8.0 32.2 0.00 0.00 0.00 83 1012.0
20260508131703 21 40 12.9 32.2 0.00 0.00 0.00 82 1011.9
20260508130703 21 40 9.7 38.6 0.00 0.00 0.00 82 1011.8
20260508125703 21 40 9.7 38.6 0.00 0.00 0.00 83 1011.7
20260508124704 21 20 11.3 38.6 0.00 0.00 0.00 82 1011.7
20260508123703 21 30 9.7 38.6 0.00 0.00 0.00 82 1011.7
20260508122704 21 40 11.3 38.6 0.00 0.00 0.00 82 1011.5
20260508121704 21 40 9.7 38.6 0.00 0.00 0.00 83 1011.4
20260508120703 21 30 12.9 32.2 0.00 0.00 0.00 83 1011.4
20260508115703 21 40 12.9 32.2 0.00 0.00 0.00 83 1011.4
20260508114704 21 30 14.5 32.2 0.00 0.00 0.00 83 1011.4
20260508113704 21 40 14.5 32.2 0.00 0.00 0.00 83 1011.4
20260508112704 21 30 14.5 32.2 0.00 0.00 0.00 83 1011.4
20260508111704 21 40 12.9 32.2 0.00 0.00 0.00 83 1011.4
20260508110704 21 40 14.5 38.6 0.00 0.00 0.00 84 1011.1
20260508105704 21 20 12.9 38.6 0.00 0.00 0.00 84 1011.1
20260508104704 22 40 11.3 38.6 0.00 0.00 0.00 83 1010.9
20260508103703 22 30 12.9 38.6 0.00 0.00 0.00 84 1010.9
20260508102704 22 20 12.9 38.6 0.00 0.00 0.00 84 1010.7
20260508101703 22 30 14.5 38.6 0.00 0.00 0.00 83 1010.6
20260508100703 22 20 14.5 37.0 0.00 0.00 0.00 83 1010.6
20260508095704 22 30 14.5 37.0 0.00 0.00 0.00 83 1010.7
20260508094704 22 30 14.5 37.0 0.00 0.00 0.00 83 1010.6
20260508093703 22 30 12.9 37.0 0.00 0.00 0.00 83 1010.4
20260508092703 22 30 14.5 37.0 0.00 0.00 0.00 82 1010.3
20260508091703 22 30 11.3 37.0 0.00 0.00 0.00 82 1010.3
20260508090703 22 30 12.9 33.8 0.00 0.00 0.00 81 1010.3
20260508085704 23 40 12.9 33.8 0.00 0.00 0.00 81 1010.4
20260508084704 23 30 16.1 33.8 0.00 0.00 0.00 80 1010.4
20260508083703 23 10 12.9 33.8 0.00 0.00 0.00 80 1010.2
20260508082704 23 30 11.3 33.8 0.00 0.00 0.00 81 1010.0
20260508081703 23 30 9.7 33.8 0.00 0.00 0.00 80 1009.8
20260508080704 23 30 11.3 37.0 0.00 0.00 0.00 80 1009.8
20260508075704 23 40 12.9 37.0 0.00 0.00 0.00 79 1009.8
20260508074704 23 30 12.9 37.0 0.00 0.00 0.00 80 1009.8
20260508073703 23 40 14.5 37.0 0.00 0.00 0.00 80 1009.8
20260508072703 23 30 12.9 37.0 0.00 0.00 0.00 79 1009.8
20260508071703 24 30 12.9 37.0 0.00 0.00 0.00 77 1009.8
20260508070703 25 30 17.7 30.6 0.00 0.00 0.00 75 1009.7
20260508065704 25 20 12.9 30.6 0.00 0.00 0.00 77 1009.7
20260508064703 25 10 14.5 30.6 0.00 0.00 0.00 76 1009.6
20260508063703 25 20 14.5 30.6 0.00 0.00 0.00 74 1009.7
20260508062703 25 20 14.5 30.6 0.00 0.00 0.00 74 1009.8
20260508061704 25 30 12.9 30.6 0.00 0.00 0.00 75 1009.8
20260508060704 25 30 12.9 38.6 0.00 0.00 0.00 74 1009.8
20260508055704 26 30 14.5 38.6 0.00 0.00 0.00 75 1009.9
20260508054705 25 30 14.5 38.6 0.00 0.00 0.00 76 1009.8
20260508053703 25 30 11.3 38.6 0.00 0.00 0.00 76 1010.1
20260508052703 25 20 16.1 38.6 0.00 0.00 0.00 74 1010.4
20260508051704 26 40 12.9 38.6 0.00 0.00 0.00 74 1010.3
20260508050704 25 30 14.5 37.0 0.00 0.00 0.00 75 1010.4
20260508045703 25 20 12.9 37.0 0.00 0.00 0.00 78 1010.4
20260508044703 25 40 14.5 37.0 0.00 0.00 0.00 77 1010.3
20260508043704 25 30 14.5 37.0 0.00 0.00 0.00 76 1010.4
20260508042704 26 40 14.5 37.0 0.00 0.00 0.00 74 1010.7
20260508041703 25 40 14.5 37.0 0.00 0.00 0.00 76 1010.7
20260508040703 25 50 14.5 30.6 0.00 0.00 0.00 78 1010.8
20260508035703 25 30 11.3 30.6 0.00 0.00 0.00 76 1010.9
20260508034704 25 30 12.9 30.6 0.00 0.00 0.00 79 1010.9
20260508033704 25 30 11.3 30.6 0.00 0.00 0.00 79 1010.9
20260508032704 25 30 12.9 30.6 0.00 0.00 0.00 79 1011.1
20260508031703 25 30 14.5 30.6 0.00 0.00 0.00 81 1011.2
20260508030703 25 30 12.9 24.1 0.00 0.00 0.00 80 1011.2
20260508025703 25 30 14.5 24.1 0.00 0.00 0.00 81 1011.2
20260508024703 25 30 12.9 24.1 0.00 0.00 0.00 80 1011.1
20260508023703 26 30 12.9 24.1 0.00 0.00 0.00 78 1011.0
20260508022705 26 40 9.7 24.1 0.00 0.00 0.00 78 1011.0
20260508021703 27 30 9.7 24.1 0.00 0.00 0.00 76 1011.1
20260508020703 27 50 6.4 20.9 0.00 0.00 0.00 77 1011.0
20260508015704 26 30 9.7 20.9 0.00 0.00 0.00 79 1011.1
20260508014704 26 20 8.0 20.9 0.00 0.00 0.00 79 1011.3
20260508013703 26 50 8.0 20.9 0.00 0.00 0.00 79 1011.2
20260508012704 26 40 9.7 20.9 0.00 0.00 0.00 79 1011.2
20260508011703 26 30 8.0 20.9 0.00 0.00 0.00 80 1011.1
20260508010703 25 20 9.7 16.1 0.00 0.00 0.00 82 1011.1
20260508005703 25 10 9.7 16.1 0.00 0.00 0.00 84 1011.1
20260508004703 25 20 6.4 16.1 0.00 0.00 0.00 84 1010.9
20260508003703 25 30 6.4 16.1 0.00 0.00 0.00 85 1010.7
20260508002703 25 10 11.3 16.1 0.00 0.00 0.00 86 1010.6
20260508001703 25 20 8.0 16.1 0.00 0.00 0.00 86 1010.6
20260508000703 25 30 6.4 8.0 0.00 0.00 0.00 87 1010.5
20260507235703 25 20 4.8 8.0 0.00 0.00 0.00 88 1010.5
20260507234703 25 20 3.2 8.0 0.00 0.00 0.00 89 1010.4
20260507233703 25 20 1.6 8.0 0.00 0.00 0.00 89 1010.4
20260507232703 25 0 0.0 8.0 0.00 0.00 0.00 88 1010.3
20260507231703 24 50 3.2 8.0 0.00 0.00 0.00 88 1010.2
20260507230703 24 70 3.2 4.8 0.00 0.00 0.00 88 1010.1
20260507225703 24 60 3.2 4.8 0.00 0.00 0.00 88 1010.1
20260507224703 23 60 3.2 4.8 0.00 0.00 0.00 88 1010.0
20260507223703 23 60 3.2 4.8 0.00 0.00 0.00 88 1010.0
20260507222703 23 10 1.6 4.8 0.00 0.00 0.00 89 1010.0
20260507221703 23 30 1.6 4.8 0.00 0.00 0.00 89 1009.8
20260507220703 23 70 1.6 8.0 0.00 0.00 0.00 88 1009.6
20260507215705 23 100 1.6 8.0 0.00 0.00 0.00 89 1009.4
20260507214704 23 90 1.6 8.0 0.00 0.00 0.00 89 1009.3
20260507213703 23 0 0.0 8.0 0.00 0.00 0.00 89 1009.5
20260507212704 23 50 1.6 8.0 0.00 0.00 0.00 90 1009.4
20260507211703 23 70 1.6 8.0 0.00 0.00 0.00 89 1009.2
20260507210703 23 70 3.2 9.7 0.00 0.00 0.00 88 1009.1
20260507205704 23 70 3.2 9.7 0.00 0.00 0.00 87 1009.0
20260507204704 23 50 4.8 9.7 0.00 0.00 0.00 87 1009.0
20260507203703 23 60 3.2 9.7 0.00 0.00 0.00 88 1008.9
20260507202705 23 60 3.2 9.7 0.00 0.00 0.00 87 1008.7
20260507201703 23 90 1.6 9.7 0.00 0.00 0.00 86 1008.7
20260507200704 23 70 3.2 9.7 0.00 0.00 0.00 86 1008.6
20260507195704 23 70 1.6 9.7 0.00 0.00 0.00 87 1008.5
20260507194703 23 110 3.2 9.7 0.00 0.00 0.00 87 1008.4
20260507193703 23 110 4.8 9.7 0.00 0.00 0.00 87 1008.3
20260507192704 23 110 3.2 9.7 0.00 0.00 0.00 88 1008.3
20260507191703 23 140 1.6 9.7 0.00 0.00 0.00 88 1008.4
20260507190703 23 140 1.6 6.4 0.00 0.00 0.00 90 1008.4
20260507185703 23 130 3.2 6.4 0.00 0.00 0.00 90 1008.4
20260507184703 23 120 3.2 6.4 0.00 0.00 0.00 90 1008.4
20260507183703 23 70 3.2 6.4 0.00 0.00 0.00 91 1008.4
20260507182703 23 60 3.2 6.4 0.00 0.00 0.00 91 1008.3
20260507181703 23 70 3.2 6.4 0.00 0.00 0.00 89 1008.4
20260507180703 23 80 1.6 4.8 0.00 0.00 0.00 91 1008.4
20260507175704 23 70 1.6 4.8 0.00 0.00 0.00 90 1008.4
20260507174704 23 80 1.6 4.8 0.00 0.00 0.00 91 1008.3
20260507173703 23 0 0.0 4.8 0.00 0.00 0.00 91 1008.3
20260507172704 23 0 0.0 4.8 0.00 0.00 0.00 91 1008.3
20260507171704 23 0 0.0 4.8 0.00 0.00 0.00 90 1008.4
20260507170705 23 0 0.0 8.0 0.00 0.00 0.00 93 1008.4
20260507165703 23 0 0.0 8.0 0.00 0.00 0.00 92 1008.4
20260507164704 23 0 0.0 8.0 0.00 0.00 0.00 90 1008.4
20260507163703 24 50 1.6 8.0 0.00 0.00 0.00 88 1008.5
20260507162703 24 30 1.6 8.0 0.00 0.00 0.00 89 1008.6
20260507161703 24 60 1.6 8.0 0.00 0.00 0.00 87 1008.6
20260507160703 25 80 1.6 9.7 0.00 0.00 0.00 85 1008.7
20260507155703 24 110 1.6 9.7 0.00 0.00 0.00 86 1008.7
20260507154703 25 120 3.2 9.7 0.00 0.00 0.00 85 1008.8
20260507153703 24 110 1.6 9.7 0.00 0.00 0.00 86 1008.9
20260507152704 25 120 3.2 9.7 0.00 0.00 0.00 85 1008.9
20260507151703 25 130 3.2 9.7 0.00 0.00 0.00 86 1009.0
20260507150704 25 110 3.2 6.4 0.00 0.00 0.00 86 1009.1
20260507145705 25 120 3.2 6.4 0.00 0.00 0.00 87 1009.1
20260507144704 25 110 3.2 6.4 0.00 0.00 0.00 86 1009.1
20260507143704 25 100 1.6 6.4 0.00 0.00 0.00 86 1009.0
20260507142705 25 100 1.6 6.4 0.00 0.00 0.00 86 1009.0
20260507141704 25 120 3.2 6.4 0.00 0.00 0.00 86 1009.0
20260507140703 25 100 1.6 6.4 0.00 0.00 0.00 86 1008.9
20260507135704 25 110 3.2 6.4 0.00 0.00 0.00 86 1008.9
20260507134703 25 80 1.6 6.4 0.00 0.00 0.00 86 1008.8
20260507133703 25 70 3.2 6.4 0.00 0.00 0.00 88 1008.8